QPF
0.00 0.00 0.00 0.00 0.00 0.00 0.00 0.00 0.00 0.00 0.00 0.00 0.00 0.00 0.00 0.00 0.00 0.00 0.00 0.00 0.00 0.00 0.00 0.00 0.00 0.00 0.00 0.00 0.00 0.00 0.00 0.00 0.00 0.00 0.00 0.00 0.00 0.00 0.00 0.00 0.00 0.00 0.00 0.00 0.00 0.00 0.00 0.00 0.00 0.00 0.00 0.00 0.00 0.00 0.00 0.00 0.00 0.00 0.00 0.00 0.00 0.00 0.00 0.00 0.00 0.00 0.00 0.00 0.00
0.00 0.00 0.00 0.00 0.00 0.00 0.00 0.00 0.00 0.00 0.00 0.00 0.00 0.00 0.00 0.00 0.00 0.00 0.00 0.00 0.00 0.00 0.00 0.00 0.00 0.00 0.00 0.00 0.00 0.00 0.00 0.00 0.00 0.00 0.00 0.00 0.00 0.00 0.00 0.00 0.00 0.00 0.00 0.00 0.00 0.00 0.00 0.00 0.00 0.00 0.00 0.00 0.00 0.00 0.00 0.00 0.00 0.00 0.00 0.00 0.00 0.00 0.00 0.00 0.00 0.00 0.00 0.00 0.00
0.00 0.00 0.00 0.00 0.00 0.00 0.00 0.00 0.00 0.00 0.00 0.00 0.00 0.00 0.00 0.00 0.00 0.00 0.00 0.00 0.00 0.00 0.00 0.00 0.00 0.00 0.00 0.00 0.00 0.00 0.00 0.00 0.00 0.00 0.00 0.00 0.00 0.00 0.00 0.00 0.00 0.00 0.00 0.00 0.00 0.00 0.00 0.00 0.00 0.00 0.00 0.00 0.00 0.00 0.00 0.00 0.00 0.00 0.00 0.00 0.00 0.00 0.00 0.00 0.00 0.00 0.00 0.00 0.00
0.00 0.00 0.00 0.00 0.00 0.00 0.00 0.00 0.00 0.00 0.00 0.00 0.00 0.00 0.00 0.00 0.00 0.00 0.00 0.00 0.00 0.00 0.00 0.00 0.00 0.00 0.00 0.00 0.00 0.00 0.00 0.00 0.00 0.00 0.00 0.00 0.00 0.00 0.00 0.00 0.00 0.00 0.00 0.00 0.00 0.00 0.00 0.00 0.00 0.00 0.00 0.00 0.00 0.00 0.00 0.00 0.00 0.00 0.00 0.00 0.00 0.00 0.00 0.00 0.00 0.00 0.00 0.00 0.00
0.00 0.00 0.00 0.00 0.00 0.00 0.00 0.00 0.00 0.00 0.00 0.00 0.00 0.00 0.00 0.00 0.00 0.00 0.00 0.00 0.00 0.00 0.00 0.00 0.00 0.00 0.00 0.00 0.00 0.00 0.00 0.00 0.00 0.00 0.00 0.00 0.00 0.00 0.00 0.00 0.00 0.00 0.00 0.00 0.00 0.00 0.00 0.00 0.00 0.00 0.00 0.00 0.00 0.00 0.00 0.00 0.00 0.00 0.00 0.00 0.00 0.00 0.00 0.00 0.00 0.00 0.00 0.00 0.00
0.00 0.00 0.00 0.00 0.00 0.00 0.00 0.00 0.00 0.00 0.00 0.00 0.00 0.00 0.00 0.00 0.00 0.00 0.00 0.00 0.00 0.00 0.00 0.00 0.00 0.00 0.00 0.00 0.00 0.00 0.00 0.00 0.00 0.00 0.00 0.00 0.00 0.00 0.00 0.00 0.00 0.00 0.00 0.00 0.00 0.00 0.00 0.00 0.00 0.00 0.00 0.00 0.00 0.00 0.00 0.00 0.00 0.00 0.00 0.00 0.00 0.00 0.00 0.00 0.00 0.00 0.00 0.00 0.00
0.00 0.00 0.00 0.00 0.00 0.00 0.00 0.00 0.00 0.00 0.00 0.00 0.00 0.00 0.00 0.00 0.00 0.00 0.00 0.00 0.00 0.00 0.00 0.00 0.00 0.00 0.00 0.00 0.00 0.00 0.00 0.00 0.00 0.00 0.00 0.00 0.00 0.00 0.00 0.00 0.00 0.00 0.00 0.00 0.00 0.00 0.00 0.00 0.00 0.00 0.00 0.00 0.00 0.00 0.00 0.00 0.00 0.00 0.00 0.00 0.00 0.00 0.00 0.00 0.00 0.00 0.00 0.00 0.00
0.00 0.00 0.00 0.00 0.00 0.00 0.00 0.00 0.00 0.00 0.00 0.00 0.00 0.00 0.00 0.00 0.00 0.00 0.00 0.00 0.00 0.00 0.00 0.00 0.00 0.00 0.00 0.00 0.00 0.00 0.00 0.00 0.00 0.00 0.00 0.00 0.00 0.00 0.00 0.00 0.00 0.00 0.00 0.00 0.00 0.00 0.00 0.00 0.00 0.00 0.00 0.00 0.00 0.00 0.00 0.00 0.00 0.00 0.00 0.00 0.00 0.00 0.00 0.00 0.00 0.00 0.00 0.00 0.00
0.00 0.00 0.00 0.00 0.00 0.00 0.00 0.00 0.00 0.00 0.00 0.00 0.00 0.00 0.00 0.00 0.00 0.00 0.00 0.00 0.00 0.00 0.00 0.00 0.00 0.00 0.00 0.00 0.00 0.00 0.00 0.00 0.00 0.00 0.00 0.00 0.00 0.00 0.00 0.00 0.00 0.00 0.00 0.00 0.00 0.00 0.00 0.00 0.00 0.00 0.00 0.00 0.00 0.00 0.00 0.00 0.00 0.00 0.00 0.00 0.00 0.00 0.00 0.00 0.00 0.00 0.00 0.00 0.00
0.00 0.00 0.00 0.00 0.00 0.00 0.00 0.00 0.00 0.00 0.00 0.00 0.00 0.00 0.00 0.00 0.00 0.00 0.00 0.00 0.00 0.00 0.00 0.00 0.00 0.00 0.00 0.00 0.00 0.00 0.00 0.00 0.00 0.00 0.00 0.00 0.00 0.00 0.00 0.00 0.00 0.00 0.00 0.00 0.00 0.00 0.00 0.00 0.00 0.00 0.00 0.00 0.00 0.00 0.00 0.00 0.00 0.00 0.00 0.00 0.00 0.00 0.00 0.00 0.00 0.00 0.00 0.00 0.00
0.00 0.00 0.00 0.00 0.00 0.00 0.00 0.00 0.00 0.00 0.00 0.00 0.00 0.00 0.00 0.00 0.00 0.00 0.00 0.00 0.00 0.00 0.00 0.00 0.00 0.00 0.00 0.00 0.00 0.00 0.00 0.00 0.00 0.00 0.00 0.00 0.00 0.00 0.00 0.00 0.00 0.00 0.00 0.00 0.00 0.00 0.00 0.00 0.00 0.00 0.00 0.00 0.00 0.00 0.00 0.00 0.00 0.00 0.00 0.00 0.00 0.00 0.00 0.00 0.00 0.00 0.00 0.00 0.00
0.00 0.00 0.00 0.00 0.00 0.00 0.00 0.00 0.00 0.00 0.00 0.00 0.00 0.00 0.00 0.00 0.00 0.00 0.00 0.00 0.00 0.00 0.00 0.00 0.00 0.00 0.00 0.00 0.00 0.00 0.00 0.00 0.00 0.00 0.00 0.00 0.00 0.00 0.00 0.00 0.00 0.00 0.00 0.00 0.00 0.00 0.00 0.00 0.00 0.00 0.00 0.00 0.00 0.00 0.00 0.00 0.00 0.00 0.00 0.00 0.00 0.00 0.00 0.00 0.00 0.00 0.00 0.00 0.00
0.00 0.00 0.00 0.00 0.00 0.00 0.00 0.00 0.00 0.00 0.00 0.00 0.00 0.00 0.00 0.00 0.00 0.00 0.00 0.00 0.00 0.00 0.00 0.00 0.00 0.00 0.00 0.00 0.00 0.00 0.00 0.00 0.00 0.00 0.00 0.00 0.00 0.00 0.00 0.00 0.00 0.00 0.00 0.00 0.00 0.00 0.00 0.00 0.00 0.00 0.00 0.00 0.00 0.00 0.00 0.00 0.00 0.00 0.00 0.00 0.00 0.00 0.00 0.00 0.00 0.00 0.00 0.00 0.00
0.00 0.00 0.00 0.00 0.00 0.00 0.00 0.00 0.00 0.00 0.00 0.00 0.00 0.00 0.00 0.00 0.00 0.00 0.00 0.00 0.00 0.00 0.00 0.00 0.00 0.00 0.00 0.00 0.00 0.00 0.00 0.00 0.00 0.00 0.00 0.00 0.00 0.00 0.00 0.00 0.00 0.00 0.00 0.00 0.00 0.00 0.00 0.00 0.00 0.00 0.00 0.00 0.00 0.00 0.00 0.00 0.00 0.00 0.00 0.00 0.00 0.00 0.00 0.00 0.00 0.00 0.00 0.00 0.00
0.00 0.00 0.00 0.00 0.00 0.00 0.00 0.00 0.00 0.00 0.00 0.00 0.00 0.00 0.00 0.00 0.00 0.00 0.00 0.00 0.00 0.00 0.00 0.00 0.00 0.00 0.00 0.00 0.00 0.00 0.00 0.00 0.00 0.00 0.00 0.00 0.00 0.00 0.00 0.00 0.00 0.00 0.00 0.00 0.00 0.00 0.00 0.00 0.00 0.00 0.00 0.00 0.00 0.00 0.00 0.00 0.00 0.00 0.00 0.00 0.00 0.00 0.00 0.00 0.00 0.00 0.00 0.00 0.00
0.00 0.00 0.00 0.00 0.00 0.00 0.00 0.00 0.00 0.00 0.00 0.00 0.00 0.00 0.00 0.00 0.00 0.00 0.00 0.00 0.00 0.00 0.00 0.00 0.00 0.00 0.00 0.00 0.00 0.00 0.00 0.00 0.00 0.00 0.00 0.00 0.00 0.00 0.00 0.00 0.00 0.00 0.00 0.00 0.00 0.00 0.00 0.00 0.00 0.00 0.00 0.00 0.00 0.00 0.00 0.00 0.00 0.00 0.00 0.00 0.00 0.00 0.00 0.00 0.00 0.00 0.00 0.00 0.00
0.00 0.00 0.00 0.00 0.00 0.00 0.00 0.00 0.00 0.00 0.00 0.00 0.00 0.00 0.00 0.00 0.00 0.00 0.00 0.00 0.00 0.00 0.00 0.00 0.00 0.00 0.00 0.00 0.00 0.00 0.00 0.00 0.00 0.00 0.00 0.00 0.00 0.00 0.00 0.00 0.00 0.00 0.00 0.00 0.00 0.00 0.00 0.00 0.00 0.00 0.00 0.00 0.00 0.00 0.00 0.00 0.00 0.00 0.00 0.00 0.00 0.00 0.00 0.00 0.00 0.00 0.00 0.00 0.00
0.00 0.00 0.00 0.00 0.00 0.00 0.00 0.00 0.00 0.00 0.00 0.00 0.00 0.00 0.00 0.00 0.00 0.00 0.00 0.00 0.00 0.00 0.00 0.00 0.00 0.00 0.00 0.00 0.00 0.00 0.00 0.00 0.00 0.00 0.00 0.00 0.00 0.00 0.00 0.00 0.00 0.00 0.00 0.00 0.00 0.00 0.00 0.00 0.00 0.00 0.00 0.00 0.00 0.00 0.00 0.00 0.00 0.00 0.00 0.00 0.00 0.00 0.00 0.00 0.00 0.00 0.00 0.00 0.00
0.00 0.00 0.00 0.00 0.00 0.00 0.00 0.00 0.00 0.00 0.00 0.00 0.00 0.00 0.00 0.00 0.00 0.00 0.00 0.00 0.00 0.00 0.00 0.00 0.00 0.00 0.00 0.00 0.00 0.00 0.00 0.00 0.00 0.00 0.00 0.00 0.00 0.00 0.00 0.00 0.00 0.00 0.00 0.00 0.00 0.00 0.00 0.00 0.00 0.00 0.00 0.00 0.00 0.00 0.00 0.00 0.00 0.00 0.00 0.00 0.00 0.00 0.00 0.00 0.00 0.00 0.00 0.00 0.00
0.00 0.00 0.00 0.00 0.00 0.00 0.00 0.00 0.00 0.00 0.00 0.00 0.00 0.00 0.00 0.00 0.00 0.00 0.00 0.00 0.00 0.00 0.00 0.00 0.00 0.00 0.00 0.00 0.00 0.00 0.00 0.00 0.00 0.00 0.00 0.00 0.00 0.00 0.00 0.00 0.00 0.00 0.00 0.00 0.00 0.00 0.00 0.00 0.00 0.00 0.00 0.00 0.00 0.00 0.00 0.00 0.00 0.00 0.00 0.00 0.00 0.00 0.00 0.00 0.00 0.00 0.00 0.00 0.00
0.00 0.00 0.00 0.00 0.00 0.00 0.00 0.00 0.00 0.00 0.00 0.00 0.00 0.00 0.00 0.00 0.00 0.00 0.00 0.00 0.00 0.00 0.00 0.00 0.00 0.00 0.00 0.00 0.00 0.00 0.00 0.00 0.00 0.00 0.00 0.00 0.00 0.00 0.00 0.00 0.00 0.00 0.00 0.00 0.00 0.00 0.00 0.00 0.00 0.00 0.00 0.00 0.00 0.00 0.00 0.00 0.00 0.00 0.00 0.00 0.00 0.00 0.00 0.00 0.00 0.00 0.00 0.00 0.00
0.00 0.00 0.00 0.00 0.00 0.00 0.00 0.00 0.00 0.00 0.00 0.00 0.00 0.00 0.00 0.00 0.00 0.00 0.00 0.00 0.00 0.00 0.00 0.00 0.00 0.00 0.00 0.00 0.00 0.00 0.00 0.00 0.00 0.00 0.00 0.00 0.00 0.00 0.00 0.00 0.00 0.00 0.00 0.00 0.00 0.00 0.00 0.00 0.00 0.00 0.00 0.00 0.00 0.00 0.00 0.00 0.00 0.00 0.00 0.00 0.00 0.00 0.00 0.00 0.00 0.00 0.00 0.00 0.00
0.00 0.00 0.00 0.00 0.00 0.00 0.00 0.00 0.00 0.00 0.00 0.00 0.00 0.00 0.00 0.00 0.00 0.00 0.00 0.00 0.00 0.00 0.00 0.00 0.00 0.00 0.00 0.00 0.00 0.00 0.00 0.00 0.00 0.00 0.00 0.00 0.00 0.00 0.00 0.00 0.00 0.00 0.00 0.00 0.00 0.00 0.00 0.00 0.00 0.00 0.00 0.00 0.00 0.00 0.00 0.00 0.00 0.00 0.00 0.00 0.00 0.00 0.00 0.00 0.00 0.00 0.01 0.01 0.01
0.00 0.00 0.00 0.00 0.00 0.00 0.00 0.00 0.00 0.00 0.00 0.00 0.00 0.00 0.00 0.00 0.00 0.00 0.00 0.00 0.00 0.00 0.00 0.00 0.00 0.00 0.00 0.00 0.00 0.00 0.00 0.00 0.00 0.00 0.00 0.00 0.00 0.00 0.00 0.00 0.00 0.00 0.00 0.00 0.00 0.00 0.00 0.00 0.00 0.00 0.00 0.00 0.00 0.00 0.00 0.00 0.00 0.00 0.00 0.00 0.00 0.00 0.00 0.00 0.00 0.00 0.00 0.00 0.00
0.00 0.00 0.00 0.00 0.00 0.00 0.00 0.00 0.00 0.00 0.00 0.00 0.00 0.00 0.00 0.00 0.00 0.00 0.00 0.00 0.00 0.00 0.00 0.00 0.00 0.00 0.00 0.00 0.00 0.00 0.00 0.00 0.00 0.00 0.00 0.00 0.00 0.00 0.00 0.00 0.00 0.00 0.00 0.00 0.00 0.00 0.00 0.00 0.00 0.00 0.00 0.00 0.00 0.00 0.00 0.00 0.00 0.00 0.00 0.00 0.00 0.00 0.00 0.00 0.00 0.00 0.00 0.00 0.00
0.00 0.00 0.00 0.00 0.00 0.00 0.00 0.00 0.00 0.00 0.00 0.00 0.00 0.00 0.00 0.00 0.00 0.00 0.00 0.00 0.00 0.00 0.00 0.00 0.00 0.00 0.00 0.00 0.00 0.00 0.00 0.00 0.00 0.00 0.00 0.00 0.00 0.00 0.00 0.00 0.00 0.00 0.00 0.00 0.00 0.00 0.00 0.00 0.00 0.00 0.00 0.00 0.00 0.00 0.00 0.00 0.00 0.00 0.00 0.00 0.01 0.01 0.01 0.00 0.00 0.00 0.00 0.00 0.00
0.00 0.00 0.00 0.00 0.00 0.00 0.00 0.00 0.00 0.00 0.00 0.00 0.00 0.00 0.00 0.00 0.00 0.00 0.00 0.00 0.00 0.00 0.00 0.00 0.00 0.00 0.00 0.00 0.00 0.00 0.00 0.00 0.00 0.00 0.00 0.00 0.00 0.00 0.00 0.00 0.00 0.00 0.00 0.00 0.00 0.00 0.00 0.00 0.00 0.00 0.00 0.00 0.00 0.00 0.00 0.01 0.01 0.01 0.01 0.01 0.01 0.01 0.01 0.00 0.00 0.00 0.00 0.00 0.00
0.00 0.00 0.00 0.00 0.00 0.00 0.00 0.00 0.00 0.00 0.00 0.00 0.00 0.00 0.00 0.00 0.00 0.00 0.00 0.00 0.00 0.00 0.00 0.00 0.00 0.00 0.00 0.00 0.00 0.00 0.00 0.00 0.00 0.00 0.00 0.00 0.00 0.00 0.00 0.00 0.00 0.00 0.00 0.00 0.00 0.00 0.00 0.00 0.00 0.00 0.00 0.00 0.00 0.00 0.01 0.01 0.01 0.01 0.01 0.01 0.01 0.01 0.01 0.00 0.00 0.00 0.00 0.00 0.00
0.00 0.00 0.00 0.00 0.00 0.00 0.00 0.00 0.00 0.00 0.00 0.00 0.00 0.00 0.00 0.00 0.00 0.00 0.00 0.00 0.00 0.00 0.00 0.00 0.00 0.00 0.00 0.00 0.00 0.00 0.00 0.00 0.00 0.00 0.00 0.00 0.00 0.00 0.00 0.00 0.00 0.00 0.00 0.00 0.00 0.00 0.00 0.00 0.00 0.00 0.00 0.00 0.00 0.00 0.01 0.02 0.02 0.02 0.02 0.02 0.02 0.01 0.01 0.00 0.00 0.00 0.00 0.00 0.00
0.00 0.00 0.00 0.00 0.00 0.00 0.00 0.00 0.00 0.00 0.00 0.00 0.00 0.00 0.00 0.00 0.00 0.00 0.00 0.00 0.00 0.00 0.00 0.00 0.00 0.00 0.00 0.00 0.00 0.00 0.00 0.00 0.00 0.00 0.00 0.00 0.00 0.00 0.00 0.00 0.00 0.00 0.00 0.00 0.00 0.00 0.00 0.00 0.00 0.00 0.00 0.00 0.00 0.01 0.01 0.02 0.02 0.02 0.02 0.02 0.01 0.01 0.01 0.01 0.00 0.00 0.00 0.00 0.00
0.00 0.00 0.00 0.00 0.00 0.00 0.00 0.00 0.00 0.00 0.00 0.00 0.00 0.00 0.00 0.00 0.00 0.00 0.00 0.00 0.00 0.00 0.00 0.00 0.00 0.00 0.00 0.00 0.00 0.00 0.00 0.00 0.00 0.00 0.00 0.00 0.00 0.00 0.00 0.00 0.00 0.00 0.00 0.00 0.00 0.00 0.00 0.00 0.00 0.00 0.00 0.00 0.00 0.01 0.02 0.02 0.02 0.03 0.02 0.02 0.02 0.01 0.01 0.01 0.01 0.00 0.00 0.00 0.00
0.00 0.00 0.00 0.00 0.00 0.00 0.00 0.00 0.00 0.00 0.00 0.00 0.00 0.00 0.00 0.00 0.00 0.00 0.00 0.00 0.00 0.00 0.00 0.00 0.00 0.00 0.00 0.00 0.00 0.00 0.00 0.00 0.00 0.00 0.00 0.00 0.00 0.00 0.00 0.00 0.00 0.00 0.00 0.00 0.00 0.00 0.00 0.00 0.00 0.00 0.00 0.00 0.01 0.01 0.02 0.03 0.03 0.03 0.03 0.02 0.02 0.01 0.01 0.01 0.01 0.00 0.00 0.00 0.00
0.00 0.00 0.00 0.00 0.00 0.00 0.00 0.00 0.00 0.00 0.00 0.00 0.00 0.00 0.00 0.00 0.00 0.00 0.00 0.00 0.00 0.00 0.00 0.00 0.00 0.00 0.00 0.00 0.00 0.00 0.00 0.00 0.00 0.00 0.00 0.00 0.00 0.00 0.00 0.00 0.00 0.00 0.00 0.00 0.00 0.00 0.00 0.00 0.00 0.00 0.00 0.00 0.01 0.02 0.03 0.03 0.03 0.03 0.03 0.02 0.02 0.01 0.01 0.00 0.00 0.00 0.00 0.00 0.00
0.00 0.00 0.00 0.00 0.00 0.00 0.00 0.00 0.00 0.00 0.00 0.00 0.00 0.00 0.00 0.00 0.00 0.00 0.00 0.00 0.00 0.00 0.00 0.00 0.00 0.00 0.00 0.00 0.00 0.00 0.00 0.00 0.00 0.00 0.00 0.00 0.00 0.00 0.00 0.00 0.00 0.00 0.00 0.00 0.00 0.00 0.00 0.00 0.00 0.00 0.00 0.01 0.02 0.03 0.03 0.03 0.04 0.03 0.02 0.02 0.02 0.01 0.01 0.00 0.00 0.00 0.00 0.00 0.00
0.00 0.00 0.00 0.00 0.00 0.00 0.00 0.00 0.00 0.00 0.00 0.00 0.00 0.00 0.00 0.00 0.00 0.00 0.00 0.00 0.00 0.00 0.00 0.00 0.00 0.00 0.00 0.00 0.00 0.00 0.00 0.00 0.00 0.00 0.00 0.00 0.00 0.00 0.00 0.00 0.00 0.00 0.00 0.00 0.00 0.00 0.00 0.00 0.00 0.00 0.00 0.01 0.03 0.03 0.03 0.04 0.03 0.03 0.02 0.02 0.01 0.01 0.01 0.01 0.00 0.00 0.00 0.00 0.00
0.00 0.00 0.00 0.00 0.00 0.00 0.00 0.00 0.00 0.00 0.00 0.00 0.00 0.00 0.00 0.00 0.00 0.00 0.00 0.00 0.00 0.00 0.00 0.00 0.00 0.00 0.00 0.00 0.00 0.00 0.00 0.00 0.00 0.00 0.00 0.00 0.00 0.00 0.00 0.00 0.00 0.00 0.00 0.00 0.00 0.00 0.00 0.00 0.00 0.00 0.00 0.02 0.03 0.04 0.04 0.04 0.03 0.02 0.02 0.02 0.01 0.01 0.01 0.00 0.00 0.00 0.00 0.00 0.00
0.00 0.00 0.00 0.00 0.00 0.00 0.00 0.00 0.00 0.00 0.00 0.00 0.00 0.00 0.00 0.00 0.00 0.00 0.00 0.00 0.00 0.00 0.00 0.00 0.00 0.00 0.00 0.00 0.00 0.00 0.00 0.00 0.00 0.00 0.00 0.00 0.00 0.00 0.00 0.00 0.00 0.00 0.00 0.00 0.00 0.00 0.00 0.00 0.00 0.00 0.00 0.01 0.02 0.03 0.04 0.04 0.03 0.02 0.02 0.02 0.01 0.01 0.01 0.00 0.00 0.00 0.00 0.00 0.00
0.00 0.00 0.00 0.00 0.00 0.00 0.00 0.00 0.00 0.00 0.00 0.00 0.00 0.00 0.00 0.00 0.00 0.00 0.00 0.00 0.00 0.00 0.00 0.00 0.00 0.00 0.00 0.00 0.00 0.00 0.00 0.00 0.00 0.00 0.00 0.00 0.00 0.00 0.00 0.00 0.00 0.00 0.00 0.00 0.00 0.00 0.00 0.00 0.00 0.00 0.00 0.02 0.03 0.03 0.04 0.04 0.03 0.02 0.02 0.02 0.01 0.01 0.00 0.00 0.00 0.00 0.00 0.00 0.00
0.00 0.00 0.00 0.00 0.00 0.00 0.00 0.00 0.00 0.00 0.00 0.00 0.00 0.00 0.00 0.00 0.00 0.00 0.00 0.00 0.00 0.00 0.00 0.00 0.00 0.00 0.00 0.00 0.00 0.00 0.00 0.00 0.00 0.00 0.00 0.00 0.00 0.00 0.00 0.00 0.00 0.00 0.00 0.00 0.00 0.00 0.00 0.00 0.00 0.00 0.00 0.02 0.03 0.04 0.05 0.05 0.04 0.03 0.02 0.01 0.01 0.01 0.00 0.00 0.00 0.00 0.00 0.00 0.00
0.00 0.00 0.00 0.00 0.00 0.00 0.00 0.00 0.00 0.00 0.00 0.00 0.00 0.00 0.00 0.00 0.00 0.00 0.00 0.00 0.00 0.00 0.00 0.00 0.00 0.00 0.00 0.00 0.00 0.00 0.00 0.00 0.00 0.00 0.00 0.00 0.00 0.00 0.00 0.00 0.00 0.00 0.00 0.00 0.00 0.00 0.00 0.00 0.00 0.00 0.00 0.01 0.03 0.04 0.05 0.05 0.05 0.04 0.02 0.02 0.02 0.01 0.01 0.00 0.01 0.01 0.01 0.01 0.01
0.00 0.00 0.00 0.00 0.00 0.00 0.00 0.00 0.00 0.00 0.00 0.00 0.00 0.00 0.00 0.00 0.00 0.00 0.00 0.00 0.00 0.00 0.00 0.00 0.00 0.00 0.00 0.00 0.00 0.00 0.00 0.00 0.00 0.00 0.00 0.00 0.00 0.00 0.00 0.00 0.00 0.00 0.00 0.00 0.00 0.00 0.00 0.00 0.00 0.00 0.00 0.01 0.02 0.04 0.05 0.05 0.05 0.04 0.03 0.03 0.02 0.02 0.02 0.01 0.01 0.01 0.01 0.01 0.01
MSLP
1012.40 1012.68 1012.92 1013.12 1013.28 1013.48 1013.68 1013.88 1014.12 1014.28 1014.36 1014.44 1014.52 1014.64 1014.76 1014.92 1015.08 1015.20 1015.32 1015.40 1015.52 1015.60 1015.68 1015.72 1015.84 1015.84 1015.92 1015.96 1015.96 1015.96 1015.96 1015.92 1015.88 1015.88 1015.84 1015.84 1015.80 1015.72 1015.68 1015.68 1015.64 1015.56 1015.52 1015.48 1015.44 1015.40 1015.36 1015.28 1015.20 1015.12 1014.96 1014.88 1014.76 1014.64 1014.52 1014.48 1014.40 1014.32 1014.20 1014.12 1013.96 1013.84 1013.72 1013.60 1013.48 1013.40 1013.32 1013.24 1013.16
1012.60 1012.88 1013.12 1013.36 1013.52 1013.64 1013.84 1014.12 1014.32 1014.44 1014.52 1014.64 1014.72 1014.80 1014.92 1015.04 1015.16 1015.24 1015.40 1015.48 1015.52 1015.64 1015.72 1015.84 1015.84 1015.88 1015.92 1015.92 1015.96 1015.96 1015.92 1015.88 1015.84 1015.84 1015.80 1015.72 1015.68 1015.68 1015.64 1015.56 1015.52 1015.48 1015.44 1015.40 1015.36 1015.28 1015.24 1015.16 1015.12 1014.96 1014.84 1014.72 1014.64 1014.48 1014.40 1014.32 1014.28 1014.20 1014.04 1013.92 1013.84 1013.68 1013.56 1013.40 1013.24 1013.16 1013.12 1013.00 1012.96
1012.80 1013.04 1013.24 1013.44 1013.56 1013.72 1013.92 1014.12 1014.36 1014.52 1014.60 1014.68 1014.80 1014.96 1015.04 1015.12 1015.24 1015.32 1015.40 1015.52 1015.60 1015.68 1015.76 1015.84 1015.84 1015.88 1015.88 1015.88 1015.92 1015.92 1015.92 1015.88 1015.84 1015.80 1015.68 1015.64 1015.56 1015.52 1015.52 1015.40 1015.36 1015.32 1015.28 1015.24 1015.20 1015.12 1015.12 1015.04 1014.96 1014.84 1014.72 1014.56 1014.44 1014.36 1014.24 1014.12 1014.12 1014.04 1013.88 1013.72 1013.64 1013.52 1013.40 1013.20 1013.08 1013.00 1012.92 1012.80 1012.68
1012.96 1013.16 1013.36 1013.52 1013.60 1013.76 1013.96 1014.12 1014.32 1014.44 1014.52 1014.68 1014.84 1015.00 1015.12 1015.24 1015.36 1015.40 1015.48 1015.56 1015.64 1015.68 1015.72 1015.76 1015.80 1015.84 1015.84 1015.92 1015.92 1015.92 1015.88 1015.84 1015.76 1015.68 1015.60 1015.52 1015.48 1015.40 1015.40 1015.32 1015.24 1015.20 1015.16 1015.12 1015.12 1015.00 1014.96 1014.96 1014.84 1014.72 1014.60 1014.48 1014.36 1014.20 1014.12 1014.04 1013.96 1013.88 1013.76 1013.60 1013.52 1013.40 1013.20 1013.04 1012.96 1012.84 1012.72 1012.60 1012.52
1013.08 1013.24 1013.40 1013.56 1013.68 1013.84 1014.00 1014.16 1014.28 1014.40 1014.52 1014.76 1014.92 1015.08 1015.20 1015.32 1015.40 1015.44 1015.52 1015.60 1015.64 1015.64 1015.64 1015.68 1015.72 1015.80 1015.84 1015.88 1015.84 1015.80 1015.72 1015.68 1015.68 1015.56 1015.48 1015.40 1015.36 1015.32 1015.28 1015.24 1015.16 1015.12 1015.08 1015.04 1015.00 1014.96 1014.92 1014.84 1014.76 1014.60 1014.48 1014.40 1014.24 1014.12 1013.96 1013.88 1013.84 1013.72 1013.60 1013.48 1013.40 1013.24 1013.12 1012.96 1012.80 1012.72 1012.60 1012.44 1012.40
1013.16 1013.32 1013.48 1013.64 1013.72 1013.88 1014.08 1014.24 1014.36 1014.48 1014.68 1014.88 1015.00 1015.12 1015.24 1015.32 1015.36 1015.40 1015.44 1015.48 1015.48 1015.52 1015.64 1015.68 1015.72 1015.76 1015.80 1015.76 1015.68 1015.68 1015.60 1015.56 1015.52 1015.44 1015.40 1015.36 1015.28 1015.24 1015.20 1015.12 1015.08 1015.04 1014.96 1014.96 1014.84 1014.80 1014.80 1014.72 1014.60 1014.44 1014.32 1014.24 1014.12 1013.96 1013.88 1013.84 1013.68 1013.56 1013.44 1013.36 1013.24 1013.12 1013.00 1012.84 1012.72 1012.64 1012.52 1012.36 1012.24
1013.20 1013.36 1013.52 1013.68 1013.80 1013.96 1014.16 1014.36 1014.52 1014.68 1014.84 1015.00 1015.12 1015.20 1015.24 1015.32 1015.32 1015.40 1015.40 1015.44 1015.48 1015.52 1015.60 1015.68 1015.68 1015.68 1015.68 1015.64 1015.56 1015.52 1015.48 1015.44 1015.40 1015.40 1015.32 1015.28 1015.20 1015.12 1015.08 1015.00 1014.96 1014.88 1014.80 1014.80 1014.68 1014.64 1014.56 1014.52 1014.40 1014.24 1014.12 1014.00 1013.92 1013.80 1013.72 1013.68 1013.56 1013.44 1013.32 1013.20 1013.08 1013.00 1012.92 1012.76 1012.68 1012.56 1012.44 1012.32 1012.20
1013.20 1013.36 1013.48 1013.68 1013.88 1014.08 1014.24 1014.44 1014.64 1014.80 1014.96 1015.12 1015.12 1015.20 1015.24 1015.32 1015.32 1015.40 1015.40 1015.48 1015.52 1015.52 1015.56 1015.60 1015.60 1015.56 1015.52 1015.52 1015.48 1015.44 1015.40 1015.36 1015.32 1015.28 1015.24 1015.16 1015.08 1015.00 1014.96 1014.88 1014.80 1014.72 1014.68 1014.60 1014.52 1014.48 1014.40 1014.32 1014.24 1014.08 1013.92 1013.84 1013.72 1013.60 1013.52 1013.44 1013.40 1013.28 1013.16 1013.04 1012.96 1012.92 1012.80 1012.72 1012.64 1012.52 1012.40 1012.28 1012.20
1013.16 1013.32 1013.52 1013.68 1013.92 1014.12 1014.32 1014.52 1014.68 1014.84 1014.96 1015.08 1015.12 1015.20 1015.24 1015.28 1015.32 1015.40 1015.44 1015.44 1015.48 1015.52 1015.52 1015.52 1015.52 1015.52 1015.48 1015.40 1015.40 1015.36 1015.32 1015.28 1015.24 1015.16 1015.12 1015.04 1014.96 1014.88 1014.80 1014.72 1014.68 1014.56 1014.48 1014.44 1014.40 1014.28 1014.20 1014.16 1014.00 1013.88 1013.76 1013.68 1013.52 1013.40 1013.36 1013.28 1013.24 1013.12 1013.04 1012.96 1012.84 1012.80 1012.68 1012.64 1012.56 1012.48 1012.40 1012.28 1012.16
1013.08 1013.24 1013.48 1013.68 1013.92 1014.12 1014.36 1014.56 1014.72 1014.84 1014.96 1015.04 1015.08 1015.12 1015.16 1015.24 1015.28 1015.32 1015.36 1015.36 1015.40 1015.40 1015.40 1015.40 1015.40 1015.40 1015.36 1015.32 1015.28 1015.24 1015.24 1015.16 1015.12 1015.04 1014.96 1014.88 1014.80 1014.72 1014.60 1014.52 1014.40 1014.32 1014.24 1014.20 1014.12 1014.08 1013.96 1013.88 1013.76 1013.64 1013.52 1013.48 1013.36 1013.24 1013.20 1013.16 1013.12 1013.04 1012.96 1012.84 1012.76 1012.68 1012.60 1012.52 1012.48 1012.40 1012.32 1012.24 1012.12
1012.96 1013.20 1013.40 1013.60 1013.88 1014.12 1014.32 1014.52 1014.68 1014.80 1014.88 1014.96 1014.96 1015.00 1015.04 1015.12 1015.12 1015.16 1015.20 1015.24 1015.24 1015.24 1015.24 1015.24 1015.24 1015.24 1015.20 1015.16 1015.12 1015.08 1015.04 1014.96 1014.92 1014.80 1014.72 1014.64 1014.52 1014.44 1014.40 1014.28 1014.20 1014.08 1013.96 1013.92 1013.88 1013.84 1013.80 1013.68 1013.56 1013.48 1013.40 1013.32 1013.24 1013.12 1013.04 1013.00 1012.96 1012.88 1012.80 1012.76 1012.68 1012.60 1012.52 1012.40 1012.40 1012.32 1012.24 1012.12 1012.00
1012.92 1013.12 1013.32 1013.52 1013.84 1014.04 1014.24 1014.40 1014.52 1014.64 1014.68 1014.76 1014.80 1014.88 1014.92 1014.92 1014.96 1014.96 1015.00 1015.00 1015.00 1015.00 1015.04 1015.04 1015.00 1015.00 1015.00 1014.96 1014.92 1014.84 1014.80 1014.76 1014.68 1014.60 1014.52 1014.40 1014.32 1014.24 1014.16 1014.08 1013.96 1013.88 1013.80 1013.72 1013.72 1013.68 1013.60 1013.52 1013.44 1013.32 1013.24 1013.12 1013.12 1013.04 1012.96 1012.88 1012.80 1012.76 1012.68 1012.60 1012.52 1012.48 1012.40 1012.28 1012.24 1012.20 1012.08 1011.96 1011.84
1012.84 1013.08 1013.28 1013.52 1013.76 1013.96 1014.16 1014.28 1014.40 1014.52 1014.56 1014.60 1014.68 1014.76 1014.76 1014.80 1014.80 1014.80 1014.80 1014.84 1014.84 1014.84 1014.84 1014.84 1014.84 1014.80 1014.80 1014.72 1014.68 1014.68 1014.60 1014.52 1014.48 1014.40 1014.32 1014.24 1014.12 1014.08 1013.96 1013.88 1013.80 1013.72 1013.68 1013.60 1013.60 1013.56 1013.48 1013.40 1013.28 1013.16 1013.08 1012.96 1012.96 1012.88 1012.80 1012.76 1012.68 1012.64 1012.52 1012.44 1012.40 1012.32 1012.24 1012.12 1012.08 1012.04 1011.96 1011.84 1011.68
1012.84 1013.08 1013.28 1013.52 1013.68 1013.88 1014.04 1014.20 1014.24 1014.36 1014.44 1014.48 1014.52 1014.60 1014.64 1014.64 1014.68 1014.68 1014.68 1014.72 1014.72 1014.72 1014.72 1014.72 1014.72 1014.68 1014.68 1014.64 1014.56 1014.52 1014.48 1014.44 1014.40 1014.28 1014.16 1014.08 1014.00 1013.92 1013.84 1013.72 1013.68 1013.60 1013.52 1013.48 1013.48 1013.44 1013.36 1013.24 1013.12 1013.00 1012.92 1012.80 1012.72 1012.68 1012.68 1012.64 1012.56 1012.48 1012.40 1012.28 1012.24 1012.12 1012.04 1011.96 1011.92 1011.84 1011.80 1011.68 1011.52
1012.88 1013.08 1013.28 1013.48 1013.68 1013.84 1013.96 1014.12 1014.16 1014.24 1014.32 1014.40 1014.40 1014.44 1014.48 1014.48 1014.52 1014.56 1014.60 1014.64 1014.68 1014.68 1014.68 1014.64 1014.64 1014.60 1014.60 1014.60 1014.52 1014.48 1014.40 1014.36 1014.24 1014.16 1014.04 1013.96 1013.84 1013.76 1013.68 1013.56 1013.48 1013.40 1013.36 1013.28 1013.24 1013.20 1013.12 1013.04 1012.92 1012.84 1012.76 1012.68 1012.56 1012.52 1012.48 1012.44 1012.40 1012.32 1012.24 1012.16 1012.04 1011.96 1011.84 1011.80 1011.76 1011.68 1011.60 1011.48 1011.40
1012.92 1013.12 1013.24 1013.44 1013.64 1013.80 1013.88 1014.00 1014.12 1014.16 1014.24 1014.24 1014.28 1014.32 1014.36 1014.40 1014.40 1014.48 1014.52 1014.56 1014.60 1014.60 1014.60 1014.56 1014.52 1014.52 1014.52 1014.48 1014.48 1014.44 1014.36 1014.24 1014.16 1014.08 1013.92 1013.80 1013.68 1013.56 1013.48 1013.40 1013.28 1013.20 1013.12 1013.04 1012.96 1012.92 1012.84 1012.80 1012.72 1012.68 1012.56 1012.48 1012.40 1012.32 1012.24 1012.20 1012.16 1012.12 1012.00 1011.96 1011.84 1011.80 1011.68 1011.64 1011.60 1011.52 1011.48 1011.40 1011.28
1012.92 1013.08 1013.24 1013.40 1013.56 1013.68 1013.84 1013.92 1014.00 1014.08 1014.12 1014.12 1014.16 1014.20 1014.24 1014.32 1014.40 1014.40 1014.48 1014.48 1014.52 1014.52 1014.52 1014.48 1014.48 1014.44 1014.44 1014.40 1014.40 1014.36 1014.24 1014.12 1014.04 1013.92 1013.76 1013.64 1013.52 1013.40 1013.28 1013.16 1013.08 1012.96 1012.88 1012.80 1012.72 1012.64 1012.56 1012.52 1012.48 1012.40 1012.36 1012.28 1012.24 1012.12 1012.08 1012.00 1011.96 1011.88 1011.84 1011.76 1011.72 1011.64 1011.52 1011.52 1011.48 1011.40 1011.36 1011.32 1011.24
1012.92 1013.08 1013.20 1013.36 1013.48 1013.60 1013.68 1013.84 1013.88 1013.96 1013.96 1014.04 1014.08 1014.16 1014.24 1014.28 1014.36 1014.36 1014.40 1014.40 1014.40 1014.40 1014.40 1014.40 1014.40 1014.40 1014.36 1014.28 1014.24 1014.24 1014.16 1014.04 1013.88 1013.76 1013.64 1013.52 1013.36 1013.24 1013.16 1013.04 1012.92 1012.80 1012.76 1012.68 1012.52 1012.44 1012.36 1012.24 1012.24 1012.16 1012.12 1012.12 1012.00 1011.96 1011.92 1011.84 1011.76 1011.68 1011.68 1011.60 1011.56 1011.52 1011.44 1011.40 1011.40 1011.40 1011.36 1011.32 1011.24
1012.84 1013.00 1013.12 1013.24 1013.40 1013.48 1013.60 1013.68 1013.72 1013.80 1013.88 1013.96 1014.04 1014.12 1014.16 1014.24 1014.24 1014.28 1014.28 1014.28 1014.28 1014.32 1014.28 1014.24 1014.24 1014.24 1014.20 1014.16 1014.12 1014.08 1014.00 1013.92 1013.76 1013.64 1013.52 1013.40 1013.24 1013.12 1013.00 1012.88 1012.76 1012.68 1012.60 1012.48 1012.40 1012.28 1012.20 1012.12 1012.08 1012.00 1011.96 1011.88 1011.84 1011.76 1011.72 1011.68 1011.60 1011.52 1011.44 1011.40 1011.40 1011.40 1011.40 1011.40 1011.40 1011.40 1011.40 1011.32 1011.24
1012.80 1012.92 1013.04 1013.16 1013.24 1013.36 1013.44 1013.52 1013.60 1013.72 1013.84 1013.92 1014.00 1014.04 1014.12 1014.16 1014.16 1014.16 1014.16 1014.12 1014.16 1014.16 1014.16 1014.12 1014.12 1014.08 1014.00 1013.96 1013.92 1013.84 1013.80 1013.72 1013.60 1013.44 1013.32 1013.24 1013.12 1012.96 1012.80 1012.72 1012.60 1012.52 1012.40 1012.32 1012.20 1012.12 1012.04 1011.96 1011.88 1011.84 1011.80 1011.72 1011.64 1011.56 1011.52 1011.44 1011.36 1011.24 1011.24 1011.24 1011.28 1011.32 1011.32 1011.36 1011.40 1011.40 1011.36 1011.32 1011.24
1012.76 1012.88 1012.96 1013.08 1013.16 1013.24 1013.36 1013.48 1013.56 1013.68 1013.80 1013.88 1013.96 1013.96 1014.04 1014.12 1014.12 1014.08 1014.08 1014.04 1014.04 1014.04 1014.04 1013.96 1013.96 1013.92 1013.84 1013.76 1013.68 1013.64 1013.52 1013.48 1013.40 1013.24 1013.12 1013.04 1012.88 1012.80 1012.68 1012.52 1012.44 1012.32 1012.24 1012.12 1012.04 1011.96 1011.88 1011.80 1011.72 1011.68 1011.60 1011.52 1011.40 1011.36 1011.24 1011.16 1011.12 1011.08 1011.12 1011.20 1011.24 1011.28 1011.32 1011.36 1011.36 1011.36 1011.24 1011.16 1011.12
1012.72 1012.84 1012.96 1013.04 1013.12 1013.24 1013.36 1013.48 1013.60 1013.68 1013.76 1013.84 1013.88 1013.92 1013.96 1013.96 1013.96 1013.96 1013.96 1013.96 1013.92 1013.92 1013.84 1013.76 1013.72 1013.68 1013.60 1013.56 1013.48 1013.40 1013.36 1013.28 1013.24 1013.12 1012.96 1012.84 1012.72 1012.60 1012.52 1012.40 1012.28 1012.16 1012.04 1011.96 1011.84 1011.76 1011.68 1011.60 1011.52 1011.44 1011.36 1011.24 1011.12 1011.04 1010.96 1010.96 1011.00 1011.04 1011.08 1011.12 1011.24 1011.24 1011.28 1011.28 1011.24 1011.20 1011.08 1010.92 1010.80
1012.72 1012.80 1012.96 1013.04 1013.16 1013.28 1013.40 1013.52 1013.56 1013.64 1013.68 1013.76 1013.80 1013.80 1013.80 1013.80 1013.80 1013.80 1013.76 1013.76 1013.72 1013.68 1013.68 1013.56 1013.52 1013.48 1013.40 1013.40 1013.36 1013.24 1013.16 1013.12 1013.00 1012.88 1012.80 1012.68 1012.52 1012.40 1012.32 1012.24 1012.12 1011.96 1011.80 1011.68 1011.56 1011.48 1011.40 1011.28 1011.24 1011.16 1011.08 1010.96 1010.80 1010.76 1010.76 1010.84 1010.92 1011.00 1011.08 1011.12 1011.16 1011.20 1011.16 1011.12 1011.08 1010.96 1010.80 1010.60 1010.48
1012.68 1012.80 1012.96 1013.04 1013.20 1013.32 1013.40 1013.48 1013.52 1013.56 1013.60 1013.60 1013.60 1013.60 1013.60 1013.56 1013.56 1013.56 1013.56 1013.56 1013.52 1013.52 1013.52 1013.44 1013.40 1013.32 1013.24 1013.24 1013.16 1013.08 1012.96 1012.84 1012.72 1012.60 1012.52 1012.40 1012.28 1012.16 1012.04 1011.92 1011.80 1011.64 1011.52 1011.40 1011.28 1011.24 1011.16 1011.12 1011.04 1010.96 1010.84 1010.80 1010.72 1010.72 1010.76 1010.80 1010.92 1011.00 1011.08 1011.08 1011.08 1011.04 1010.96 1010.92 1010.80 1010.68 1010.56 1010.40 1010.24
1012.68 1012.80 1012.96 1013.12 1013.24 1013.32 1013.40 1013.40 1013.44 1013.48 1013.48 1013.44 1013.48 1013.44 1013.40 1013.40 1013.40 1013.40 1013.40 1013.36 1013.32 1013.32 1013.28 1013.24 1013.24 1013.16 1013.12 1013.04 1012.96 1012.84 1012.72 1012.60 1012.48 1012.32 1012.20 1012.08 1011.96 1011.88 1011.76 1011.60 1011.48 1011.36 1011.24 1011.12 1011.08 1011.08 1011.08 1011.04 1010.96 1010.92 1010.80 1010.80 1010.80 1010.80 1010.88 1010.92 1011.00 1011.08 1011.08 1011.00 1010.96 1010.84 1010.72 1010.56 1010.44 1010.40 1010.24 1010.12 1010.00
1012.72 1012.88 1013.00 1013.12 1013.20 1013.24 1013.32 1013.36 1013.40 1013.40 1013.40 1013.36 1013.36 1013.28 1013.24 1013.20 1013.20 1013.24 1013.20 1013.16 1013.12 1013.12 1013.12 1013.08 1013.04 1013.00 1012.96 1012.80 1012.68 1012.56 1012.48 1012.36 1012.24 1012.08 1011.88 1011.76 1011.64 1011.52 1011.44 1011.32 1011.20 1011.08 1010.96 1010.88 1010.88 1010.88 1010.88 1010.92 1010.92 1010.92 1010.88 1010.84 1010.84 1010.84 1010.84 1010.84 1010.88 1010.92 1010.92 1010.84 1010.72 1010.60 1010.40 1010.20 1010.04 1009.96 1009.84 1009.72 1009.64
1012.80 1012.92 1013.00 1013.12 1013.16 1013.24 1013.24 1013.24 1013.28 1013.28 1013.28 1013.24 1013.20 1013.16 1013.12 1013.12 1013.08 1013.08 1013.04 1012.96 1012.96 1012.96 1012.92 1012.88 1012.80 1012.80 1012.72 1012.60 1012.44 1012.32 1012.16 1012.04 1011.88 1011.76 1011.60 1011.48 1011.36 1011.24 1011.12 1011.00 1010.92 1010.80 1010.72 1010.64 1010.64 1010.64 1010.68 1010.68 1010.72 1010.80 1010.84 1010.84 1010.80 1010.80 1010.76 1010.68 1010.68 1010.68 1010.68 1010.56 1010.40 1010.28 1010.12 1009.88 1009.68 1009.52 1009.40 1009.28 1009.24
1012.84 1012.92 1013.00 1013.08 1013.12 1013.12 1013.16 1013.20 1013.24 1013.24 1013.16 1013.12 1013.12 1013.08 1013.04 1013.00 1012.96 1012.96 1012.92 1012.84 1012.80 1012.76 1012.72 1012.64 1012.56 1012.52 1012.40 1012.20 1012.08 1011.96 1011.84 1011.68 1011.56 1011.44 1011.32 1011.20 1011.12 1010.96 1010.80 1010.68 1010.60 1010.52 1010.44 1010.40 1010.40 1010.44 1010.44 1010.48 1010.52 1010.64 1010.72 1010.80 1010.76 1010.68 1010.60 1010.52 1010.48 1010.40 1010.32 1010.20 1010.12 1009.96 1009.72 1009.52 1009.40 1009.24 1009.08 1008.92 1008.80
1012.84 1012.92 1012.96 1013.00 1013.04 1013.12 1013.12 1013.16 1013.12 1013.12 1013.12 1013.12 1013.08 1013.04 1012.96 1012.96 1012.88 1012.80 1012.68 1012.68 1012.60 1012.52 1012.44 1012.36 1012.28 1012.20 1012.08 1011.92 1011.76 1011.68 1011.56 1011.44 1011.32 1011.16 1011.04 1010.92 1010.76 1010.64 1010.52 1010.44 1010.32 1010.24 1010.20 1010.20 1010.24 1010.24 1010.28 1010.36 1010.40 1010.52 1010.60 1010.68 1010.64 1010.56 1010.48 1010.40 1010.28 1010.16 1010.00 1009.88 1009.76 1009.56 1009.40 1009.24 1009.04 1008.84 1008.72 1008.60 1008.48
1012.80 1012.84 1012.88 1012.96 1012.96 1013.00 1013.04 1013.04 1013.04 1013.04 1013.04 1013.04 1013.00 1012.96 1012.88 1012.80 1012.72 1012.64 1012.52 1012.48 1012.40 1012.24 1012.20 1012.16 1012.08 1011.96 1011.84 1011.72 1011.56 1011.44 1011.32 1011.12 1011.00 1010.88 1010.76 1010.68 1010.52 1010.40 1010.28 1010.20 1010.12 1010.00 1009.96 1010.00 1010.04 1010.12 1010.16 1010.24 1010.32 1010.40 1010.44 1010.52 1010.52 1010.44 1010.28 1010.16 1010.04 1009.88 1009.72 1009.56 1009.40 1009.24 1009.08 1008.84 1008.68 1008.52 1008.40 1008.24 1008.12
1012.68 1012.72 1012.80 1012.88 1012.88 1012.92 1012.96 1012.96 1012.96 1013.00 1013.04 1013.00 1012.92 1012.84 1012.72 1012.64 1012.52 1012.44 1012.36 1012.24 1012.16 1012.12 1012.08 1011.96 1011.88 1011.76 1011.64 1011.48 1011.36 1011.16 1010.96 1010.80 1010.68 1010.60 1010.52 1010.40 1010.28 1010.20 1010.08 1009.96 1009.92 1009.84 1009.84 1009.88 1009.96 1010.04 1010.12 1010.20 1010.24 1010.28 1010.32 1010.32 1010.32 1010.20 1010.08 1009.92 1009.76 1009.60 1009.40 1009.24 1009.04 1008.88 1008.68 1008.52 1008.32 1008.16 1008.04 1007.88 1007.76
1012.60 1012.68 1012.72 1012.72 1012.80 1012.80 1012.84 1012.88 1012.92 1012.96 1012.92 1012.84 1012.76 1012.68 1012.56 1012.44 1012.36 1012.28 1012.24 1012.12 1012.08 1011.96 1011.88 1011.76 1011.64 1011.52 1011.36 1011.24 1011.08 1010.88 1010.72 1010.60 1010.52 1010.44 1010.36 1010.24 1010.16 1010.04 1009.96 1009.84 1009.80 1009.72 1009.72 1009.84 1009.96 1010.00 1010.08 1010.08 1010.12 1010.12 1010.12 1010.08 1010.00 1009.88 1009.72 1009.60 1009.40 1009.24 1009.04 1008.84 1008.68 1008.52 1008.36 1008.24 1008.00 1007.84 1007.68 1007.52 1007.40
1012.52 1012.56 1012.60 1012.64 1012.68 1012.68 1012.76 1012.80 1012.80 1012.80 1012.76 1012.68 1012.56 1012.52 1012.40 1012.28 1012.24 1012.16 1012.12 1012.04 1011.96 1011.84 1011.68 1011.56 1011.40 1011.28 1011.12 1010.96 1010.80 1010.68 1010.56 1010.48 1010.40 1010.32 1010.24 1010.16 1010.08 1009.96 1009.84 1009.72 1009.68 1009.64 1009.68 1009.84 1009.92 1009.96 1009.96 1009.96 1009.92 1009.84 1009.76 1009.68 1009.68 1009.52 1009.36 1009.20 1009.04 1008.80 1008.64 1008.44 1008.24 1008.08 1007.96 1007.84 1007.64 1007.44 1007.28 1007.16 1007.04
1012.48 1012.52 1012.56 1012.56 1012.60 1012.64 1012.68 1012.72 1012.68 1012.64 1012.56 1012.48 1012.36 1012.32 1012.24 1012.20 1012.12 1012.04 1011.96 1011.88 1011.76 1011.64 1011.52 1011.40 1011.24 1011.12 1010.96 1010.80 1010.68 1010.52 1010.40 1010.40 1010.28 1010.20 1010.12 1010.04 1009.96 1009.84 1009.72 1009.68 1009.64 1009.68 1009.76 1009.80 1009.80 1009.80 1009.76 1009.68 1009.60 1009.52 1009.44 1009.36 1009.28 1009.12 1008.96 1008.76 1008.60 1008.40 1008.20 1007.96 1007.84 1007.68 1007.52 1007.40 1007.20 1007.04 1006.88 1006.76 1006.68
1012.40 1012.44 1012.48 1012.52 1012.60 1012.60 1012.60 1012.56 1012.52 1012.44 1012.36 1012.24 1012.24 1012.20 1012.12 1012.12 1012.00 1011.88 1011.76 1011.68 1011.56 1011.44 1011.32 1011.20 1011.12 1010.96 1010.80 1010.64 1010.56 1010.44 1010.32 1010.24 1010.16 1010.08 1010.00 1009.92 1009.84 1009.76 1009.68 1009.68 1009.64 1009.64 1009.68 1009.68 1009.60 1009.52 1009.48 1009.40 1009.28 1009.20 1009.12 1009.04 1008.92 1008.76 1008.52 1008.36 1008.12 1007.96 1007.76 1007.56 1007.40 1007.24 1007.08 1006.92 1006.76 1006.60 1006.44 1006.32 1006.24
1012.24 1012.40 1012.48 1012.52 1012.56 1012.52 1012.48 1012.40 1012.28 1012.24 1012.16 1012.12 1012.12 1012.08 1012.00 1011.92 1011.84 1011.72 1011.60 1011.52 1011.40 1011.24 1011.12 1010.96 1010.88 1010.76 1010.60 1010.48 1010.40 1010.32 1010.20 1010.12 1009.96 1009.92 1009.84 1009.84 1009.80 1009.72 1009.68 1009.64 1009.56 1009.52 1009.52 1009.52 1009.40 1009.32 1009.24 1009.12 1008.96 1008.88 1008.80 1008.72 1008.52 1008.36 1008.16 1007.96 1007.76 1007.52 1007.32 1007.12 1006.96 1006.76 1006.56 1006.44 1006.28 1006.12 1005.96 1005.84 1005.72
1012.24 1012.32 1012.40 1012.40 1012.40 1012.32 1012.24 1012.20 1012.12 1012.08 1012.00 1011.96 1011.96 1011.92 1011.84 1011.72 1011.60 1011.52 1011.48 1011.40 1011.24 1011.12 1010.96 1010.80 1010.68 1010.56 1010.44 1010.32 1010.24 1010.12 1010.04 1009.96 1009.84 1009.80 1009.76 1009.76 1009.76 1009.72 1009.68 1009.56 1009.44 1009.40 1009.32 1009.24 1009.16 1009.04 1008.92 1008.80 1008.68 1008.60 1008.52 1008.36 1008.16 1007.96 1007.80 1007.60 1007.40 1007.16 1006.96 1006.76 1006.52 1006.32 1006.16 1005.96 1005.80 1005.60 1005.48 1005.32 1005.20
1012.16 1012.20 1012.24 1012.24 1012.16 1012.12 1012.08 1012.04 1012.00 1011.96 1011.92 1011.84 1011.84 1011.76 1011.68 1011.60 1011.52 1011.40 1011.36 1011.32 1011.16 1010.96 1010.80 1010.68 1010.52 1010.40 1010.24 1010.16 1010.08 1009.96 1009.92 1009.84 1009.80 1009.72 1009.68 1009.68 1009.68 1009.68 1009.60 1009.48 1009.32 1009.20 1009.12 1009.00 1008.88 1008.72 1008.60 1008.48 1008.40 1008.28 1008.16 1008.00 1007.84 1007.68 1007.48 1007.24 1007.04 1006.80 1006.60 1006.40 1006.12 1005.92 1005.72 1005.52 1005.32 1005.12 1004.92 1004.76 1004.64
1012.08 1012.08 1012.08 1012.04 1011.96 1011.96 1011.96 1011.92 1011.88 1011.84 1011.84 1011.76 1011.68 1011.64 1011.60 1011.52 1011.40 1011.28 1011.24 1011.24 1011.12 1010.88 1010.68 1010.48 1010.32 1010.20 1010.12 1010.04 1009.96 1009.84 1009.72 1009.68 1009.64 1009.64 1009.64 1009.60 1009.60 1009.60 1009.52 1009.40 1009.16 1008.96 1008.80 1008.68 1008.56 1008.40 1008.28 1008.12 1008.00 1007.88 1007.76 1007.68 1007.52 1007.32 1007.16 1006.96 1006.68 1006.48 1006.24 1006.00 1005.72 1005.48 1005.24 1005.12 1004.88 1004.68 1004.44 1004.24 1004.12
1011.96 1011.96 1011.96 1011.96 1011.92 1011.88 1011.84 1011.80 1011.76 1011.72 1011.72 1011.68 1011.64 1011.56 1011.52 1011.40 1011.32 1011.24 1011.16 1011.08 1010.96 1010.76 1010.56 1010.36 1010.20 1010.08 1010.00 1009.92 1009.80 1009.68 1009.52 1009.52 1009.52 1009.52 1009.56 1009.56 1009.52 1009.48 1009.40 1009.24 1009.00 1008.76 1008.52 1008.40 1008.24 1008.08 1007.92 1007.76 1007.60 1007.48 1007.40 1007.28 1007.16 1007.00 1006.84 1006.68 1006.40 1006.12 1005.88 1005.64 1005.40 1005.12 1004.88 1004.68 1004.48 1004.32 1004.12 1003.88 1003.76
1011.92 1011.92 1011.88 1011.84 1011.84 1011.80 1011.72 1011.68 1011.68 1011.68 1011.68 1011.68 1011.60 1011.52 1011.44 1011.36 1011.24 1011.16 1011.04 1010.88 1010.72 1010.60 1010.44 1010.24 1010.12 1009.96 1009.88 1009.84 1009.68 1009.52 1009.44 1009.40 1009.40 1009.44 1009.52 1009.52 1009.40 1009.28 1009.16 1008.96 1008.76 1008.48 1008.24 1008.04 1007.88 1007.68 1007.52 1007.40 1007.24 1007.12 1007.00 1006.96 1006.80 1006.72 1006.60 1006.40 1006.12 1005.84 1005.56 1005.32 1005.12 1004.88 1004.60 1004.36 1004.12 1003.96 1003.76 1003.56 1003.40
Thickness
5507 5502 5497 5493 5489 5485 5481 5477 5472 5469 5466 5462 5460 5457 5454 5452 5448 5445 5442 5439 5436 5434 5431 5429 5427 5425 5422 5421 5419 5418 5416 5415 5414 5413 5412 5411 5410 5409 5408 5407 5406 5406 5405 5404 5404 5403 5403 5403 5402 5403 5404 5405 5406 5407 5408 5407 5408 5408 5409 5410 5411 5412 5413 5414 5415 5416 5417 5417 5416
5499 5494 5489 5485 5481 5478 5474 5470 5466 5462 5459 5456 5453 5451 5448 5445 5442 5439 5437 5434 5431 5428 5425 5423 5421 5419 5417 5415 5414 5412 5411 5410 5409 5408 5407 5406 5405 5404 5403 5402 5402 5401 5401 5400 5400 5399 5399 5399 5399 5399 5400 5401 5401 5402 5403 5403 5402 5403 5404 5405 5405 5406 5407 5408 5410 5411 5411 5412 5412
5492 5488 5483 5479 5476 5472 5468 5464 5460 5457 5454 5451 5447 5444 5442 5439 5436 5434 5431 5428 5426 5423 5420 5418 5416 5415 5413 5411 5409 5408 5407 5405 5404 5403 5402 5401 5401 5400 5398 5398 5397 5397 5396 5396 5395 5395 5395 5394 5394 5395 5396 5397 5397 5398 5398 5398 5398 5398 5398 5399 5400 5401 5402 5403 5404 5405 5405 5406 5406
5486 5482 5478 5474 5470 5466 5463 5459 5456 5452 5449 5446 5442 5439 5436 5433 5430 5427 5425 5422 5420 5417 5415 5413 5412 5409 5408 5407 5405 5403 5402 5401 5400 5398 5398 5397 5396 5396 5395 5394 5393 5393 5392 5391 5391 5390 5390 5389 5390 5390 5392 5393 5393 5393 5394 5393 5393 5393 5393 5394 5394 5395 5396 5397 5398 5398 5399 5399 5400
5480 5475 5471 5468 5465 5461 5458 5454 5451 5448 5444 5440 5437 5434 5430 5427 5425 5422 5420 5417 5415 5413 5411 5409 5407 5405 5403 5401 5400 5399 5398 5397 5396 5394 5394 5393 5392 5391 5391 5389 5389 5388 5388 5387 5387 5386 5385 5385 5385 5385 5387 5387 5388 5389 5389 5389 5388 5388 5388 5388 5388 5389 5389 5390 5390 5391 5392 5392 5393
5474 5469 5465 5462 5459 5455 5452 5448 5445 5441 5438 5434 5431 5428 5425 5423 5421 5418 5416 5414 5412 5409 5407 5404 5402 5400 5398 5398 5396 5396 5394 5393 5392 5391 5389 5389 5388 5387 5387 5385 5385 5384 5383 5383 5382 5381 5381 5380 5381 5381 5383 5383 5383 5383 5384 5383 5383 5382 5382 5382 5383 5383 5383 5383 5383 5384 5384 5384 5385
5469 5465 5461 5457 5453 5450 5446 5442 5439 5435 5432 5428 5425 5423 5421 5418 5416 5414 5412 5409 5407 5405 5402 5400 5398 5396 5395 5394 5392 5391 5390 5389 5388 5387 5385 5384 5384 5383 5382 5382 5381 5380 5380 5379 5378 5377 5377 5376 5376 5377 5378 5378 5378 5378 5378 5377 5376 5376 5376 5376 5376 5377 5376 5376 5376 5375 5376 5376 5377
5465 5460 5457 5453 5448 5444 5440 5436 5433 5429 5426 5423 5421 5418 5416 5413 5411 5409 5406 5404 5402 5400 5398 5395 5394 5392 5391 5389 5388 5387 5386 5384 5383 5382 5381 5380 5379 5379 5378 5378 5377 5376 5375 5375 5374 5373 5372 5372 5372 5372 5373 5373 5373 5373 5372 5372 5370 5370 5369 5370 5369 5369 5369 5368 5367 5367 5367 5367 5367
5460 5456 5452 5448 5444 5439 5436 5432 5428 5425 5422 5419 5416 5414 5411 5409 5407 5404 5402 5400 5398 5395 5393 5391 5390 5388 5386 5385 5383 5382 5380 5379 5378 5377 5377 5376 5375 5374 5374 5374 5373 5372 5372 5371 5370 5369 5368 5367 5367 5367 5367 5367 5367 5367 5367 5365 5364 5363 5363 5363 5363 5362 5361 5361 5360 5359 5359 5358 5358
5456 5452 5448 5444 5439 5435 5431 5427 5423 5420 5418 5415 5412 5410 5407 5405 5403 5401 5398 5396 5393 5391 5390 5388 5386 5384 5382 5380 5379 5377 5376 5375 5374 5373 5373 5372 5372 5371 5370 5370 5369 5369 5368 5367 5366 5365 5364 5363 5363 5363 5362 5362 5362 5361 5360 5359 5358 5357 5356 5355 5355 5354 5354 5353 5352 5351 5350 5350 5349
5452 5448 5444 5440 5435 5431 5427 5423 5419 5416 5414 5412 5409 5407 5404 5401 5399 5397 5395 5393 5390 5389 5386 5385 5382 5381 5379 5377 5376 5374 5373 5371 5371 5370 5369 5369 5369 5368 5367 5366 5366 5365 5364 5363 5362 5360 5359 5359 5358 5358 5357 5356 5355 5354 5353 5352 5351 5350 5348 5348 5347 5346 5346 5346 5344 5343 5343 5342 5342
5448 5444 5439 5435 5431 5427 5423 5420 5416 5414 5411 5408 5406 5403 5400 5398 5396 5393 5391 5389 5387 5386 5384 5381 5379 5377 5375 5374 5373 5371 5370 5369 5368 5367 5366 5366 5365 5365 5364 5363 5362 5361 5360 5358 5357 5355 5354 5353 5352 5351 5351 5349 5348 5347 5346 5345 5343 5342 5341 5340 5339 5339 5338 5338 5337 5336 5336 5335 5335
5443 5439 5435 5431 5427 5423 5419 5416 5413 5410 5407 5405 5402 5399 5397 5395 5392 5390 5388 5386 5384 5382 5380 5378 5375 5374 5372 5371 5369 5368 5366 5365 5364 5363 5363 5362 5361 5360 5359 5358 5357 5356 5354 5352 5350 5349 5348 5347 5346 5345 5344 5342 5341 5340 5338 5337 5336 5335 5333 5333 5332 5331 5331 5331 5330 5329 5328 5328 5328
5438 5435 5430 5426 5422 5419 5416 5413 5409 5406 5404 5401 5398 5395 5393 5391 5389 5387 5385 5383 5381 5379 5377 5374 5372 5370 5368 5367 5365 5364 5362 5361 5361 5359 5359 5357 5356 5355 5353 5353 5351 5350 5348 5346 5344 5342 5341 5340 5339 5337 5336 5335 5334 5333 5331 5330 5328 5328 5327 5326 5326 5325 5325 5324 5323 5322 5321 5321 5321
5433 5429 5425 5421 5418 5414 5411 5409 5405 5402 5399 5397 5394 5392 5390 5387 5385 5383 5380 5379 5376 5375 5372 5370 5368 5366 5364 5362 5361 5359 5358 5357 5356 5355 5354 5353 5351 5350 5349 5347 5345 5344 5342 5340 5338 5336 5335 5333 5332 5330 5329 5328 5328 5327 5325 5323 5322 5321 5320 5319 5319 5318 5318 5317 5317 5316 5315 5315 5315
5428 5424 5421 5417 5413 5410 5407 5404 5401 5398 5395 5393 5390 5388 5386 5384 5381 5379 5376 5374 5372 5370 5368 5366 5364 5362 5360 5358 5357 5355 5353 5353 5351 5350 5349 5348 5346 5344 5343 5341 5339 5338 5336 5334 5332 5331 5329 5328 5326 5324 5323 5322 5321 5321 5320 5318 5316 5315 5315 5314 5313 5312 5312 5311 5311 5310 5309 5308 5309
5424 5420 5416 5413 5409 5406 5402 5400 5397 5394 5392 5389 5386 5384 5382 5380 5377 5375 5372 5370 5368 5366 5364 5362 5360 5358 5356 5355 5353 5351 5349 5347 5346 5346 5344 5343 5341 5340 5338 5336 5335 5333 5331 5329 5328 5326 5324 5323 5321 5319 5317 5316 5315 5314 5313 5312 5311 5310 5309 5308 5307 5306 5306 5305 5305 5304 5303 5303 5302
5419 5415 5412 5408 5405 5402 5398 5396 5393 5390 5388 5385 5383 5380 5377 5375 5373 5370 5368 5366 5363 5362 5360 5358 5356 5354 5353 5351 5349 5347 5345 5343 5342 5341 5339 5338 5336 5335 5333 5332 5330 5328 5326 5325 5323 5322 5320 5318 5317 5314 5312 5310 5309 5309 5308 5307 5305 5304 5304 5303 5302 5301 5300 5299 5298 5297 5296 5296 5296
5415 5411 5407 5404 5401 5398 5394 5392 5389 5387 5384 5382 5378 5376 5374 5371 5368 5366 5364 5362 5360 5358 5356 5354 5353 5351 5349 5347 5345 5343 5341 5339 5337 5336 5335 5333 5332 5330 5328 5327 5325 5323 5322 5320 5318 5317 5315 5313 5311 5309 5307 5306 5304 5303 5302 5301 5300 5299 5299 5297 5296 5295 5294 5293 5292 5291 5290 5289 5289
5410 5407 5403 5400 5397 5394 5391 5389 5385 5382 5380 5377 5375 5372 5370 5367 5365 5363 5361 5359 5357 5354 5352 5350 5349 5347 5345 5343 5341 5338 5337 5335 5333 5332 5330 5329 5327 5326 5324 5322 5321 5319 5317 5315 5314 5312 5310 5308 5306 5304 5302 5300 5299 5298 5297 5296 5295 5295 5293 5292 5290 5289 5288 5287 5286 5285 5284 5283 5283
5405 5402 5399 5396 5392 5390 5387 5384 5381 5378 5376 5373 5371 5368 5365 5363 5361 5359 5358 5355 5353 5351 5348 5347 5345 5343 5341 5339 5338 5335 5333 5331 5329 5327 5326 5324 5323 5321 5320 5318 5316 5314 5313 5311 5309 5307 5305 5303 5301 5299 5297 5295 5294 5293 5292 5291 5290 5289 5287 5285 5284 5283 5281 5280 5279 5279 5279 5279 5279
5401 5398 5394 5391 5388 5385 5383 5379 5376 5374 5371 5369 5367 5364 5362 5360 5358 5356 5354 5352 5349 5348 5345 5344 5342 5340 5338 5336 5333 5332 5329 5327 5325 5323 5321 5320 5318 5316 5314 5312 5310 5309 5308 5306 5304 5302 5300 5297 5295 5294 5293 5291 5289 5289 5288 5286 5284 5283 5281 5280 5278 5277 5276 5275 5274 5275 5275 5276 5277
5397 5393 5390 5387 5383 5380 5377 5375 5372 5369 5368 5365 5362 5360 5358 5357 5355 5353 5351 5349 5346 5344 5343 5340 5338 5336 5334 5332 5329 5327 5325 5323 5321 5319 5317 5315 5314 5311 5309 5307 5305 5304 5303 5301 5300 5297 5295 5293 5291 5290 5288 5287 5285 5284 5283 5281 5279 5277 5276 5274 5273 5272 5272 5271 5272 5272 5274 5275 5276
5392 5388 5385 5382 5379 5376 5373 5370 5368 5366 5364 5362 5360 5358 5356 5354 5352 5350 5348 5345 5344 5341 5338 5336 5334 5332 5330 5328 5325 5323 5321 5319 5317 5315 5313 5311 5309 5307 5305 5303 5301 5300 5298 5296 5294 5292 5290 5288 5286 5285 5283 5282 5280 5279 5277 5275 5273 5271 5270 5270 5269 5269 5269 5269 5270 5271 5271 5273 5274
5388 5384 5381 5377 5374 5371 5369 5367 5365 5362 5361 5359 5357 5355 5353 5351 5349 5346 5345 5342 5340 5337 5335 5332 5330 5327 5325 5323 5321 5319 5317 5315 5313 5312 5309 5308 5306 5303 5301 5299 5297 5295 5293 5292 5290 5288 5284 5282 5281 5279 5278 5276 5275 5273 5271 5270 5268 5267 5266 5265 5265 5266 5267 5268 5270 5270 5271 5272 5273
5383 5380 5376 5373 5370 5368 5366 5364 5361 5359 5357 5355 5354 5351 5350 5347 5345 5343 5341 5338 5336 5333 5331 5328 5326 5323 5321 5319 5317 5316 5314 5312 5309 5308 5306 5304 5302 5299 5297 5295 5293 5291 5289 5288 5285 5283 5280 5278 5275 5274 5272 5271 5269 5268 5267 5266 5265 5264 5263 5264 5264 5266 5267 5269 5270 5272 5272 5273 5273
5378 5375 5372 5369 5367 5365 5362 5360 5358 5356 5354 5352 5350 5348 5346 5344 5342 5339 5337 5334 5332 5329 5327 5324 5322 5319 5317 5315 5313 5312 5310 5308 5306 5304 5302 5300 5298 5296 5293 5291 5289 5287 5285 5283 5281 5279 5277 5275 5272 5270 5268 5266 5266 5265 5264 5264 5263 5263 5263 5263 5264 5266 5267 5269 5271 5272 5273 5274 5274
5373 5371 5368 5366 5364 5361 5359 5357 5354 5352 5350 5349 5347 5345 5343 5340 5338 5335 5333 5331 5328 5325 5322 5320 5318 5315 5313 5312 5310 5309 5306 5305 5302 5300 5298 5295 5294 5292 5290 5288 5285 5283 5282 5280 5278 5276 5274 5272 5269 5267 5264 5264 5262 5262 5263 5262 5262 5262 5263 5264 5265 5266 5268 5269 5271 5272 5273 5275 5275
5370 5367 5365 5363 5361 5358 5356 5354 5352 5349 5347 5345 5343 5340 5338 5336 5334 5332 5329 5326 5324 5322 5319 5317 5314 5311 5310 5308 5307 5305 5302 5300 5298 5296 5294 5291 5290 5288 5286 5284 5283 5281 5280 5277 5275 5273 5271 5269 5267 5265 5263 5261 5260 5260 5261 5261 5261 5262 5263 5264 5265 5267 5268 5270 5271 5272 5273 5274 5275
5367 5364 5362 5360 5357 5355 5353 5351 5349 5346 5344 5341 5339 5337 5335 5333 5330 5328 5326 5323 5320 5318 5315 5313 5310 5308 5306 5304 5302 5300 5298 5296 5294 5292 5290 5288 5286 5284 5283 5281 5280 5278 5277 5275 5272 5270 5269 5266 5264 5263 5261 5260 5259 5259 5260 5260 5262 5262 5263 5264 5266 5267 5268 5270 5271 5272 5273 5274 5276
5364 5361 5359 5357 5354 5352 5350 5347 5345 5342 5339 5337 5335 5333 5332 5329 5327 5324 5322 5319 5316 5314 5311 5309 5307 5304 5302 5300 5299 5297 5295 5293 5290 5288 5286 5283 5282 5280 5279 5278 5277 5276 5274 5272 5269 5267 5266 5264 5263 5261 5260 5259 5258 5259 5260 5260 5261 5262 5264 5265 5266 5267 5269 5270 5271 5273 5274 5275 5275
5361 5359 5356 5354 5351 5349 5347 5344 5341 5338 5336 5334 5332 5330 5328 5325 5323 5320 5318 5315 5312 5310 5307 5305 5303 5301 5299 5297 5295 5293 5291 5289 5286 5284 5281 5279 5278 5276 5275 5275 5274 5273 5271 5269 5267 5265 5263 5262 5261 5260 5259 5259 5259 5259 5260 5261 5262 5263 5264 5265 5267 5268 5269 5270 5271 5273 5273 5274 5276
5358 5356 5353 5351 5348 5346 5344 5341 5338 5335 5333 5331 5329 5327 5324 5321 5319 5316 5313 5311 5309 5306 5304 5302 5300 5298 5296 5294 5292 5290 5287 5285 5282 5280 5277 5275 5274 5273 5273 5272 5272 5271 5268 5266 5264 5263 5262 5261 5261 5261 5260 5260 5260 5260 5261 5262 5262 5264 5265 5266 5268 5269 5269 5270 5271 5273 5274 5274 5275
5356 5353 5350 5348 5345 5342 5340 5337 5334 5332 5330 5328 5325 5323 5320 5317 5314 5312 5309 5307 5305 5303 5301 5299 5297 5295 5292 5290 5288 5285 5283 5280 5278 5276 5274 5272 5271 5270 5270 5270 5269 5267 5265 5263 5262 5262 5261 5261 5261 5261 5261 5260 5260 5261 5262 5263 5264 5265 5266 5267 5269 5269 5270 5271 5272 5272 5274 5274 5275
5353 5350 5347 5344 5342 5339 5336 5334 5331 5329 5327 5324 5322 5319 5316 5314 5311 5309 5307 5304 5302 5300 5298 5296 5294 5290 5288 5286 5283 5281 5279 5276 5274 5273 5272 5270 5269 5269 5268 5267 5266 5265 5263 5262 5261 5261 5261 5261 5261 5261 5261 5261 5261 5262 5263 5264 5265 5266 5267 5268 5269 5271 5271 5271 5272 5273 5274 5274 5275
5350 5347 5344 5341 5338 5336 5334 5331 5329 5326 5324 5321 5318 5315 5313 5310 5307 5305 5303 5301 5299 5297 5294 5293 5290 5287 5285 5283 5280 5278 5275 5273 5272 5270 5269 5267 5266 5265 5265 5265 5264 5263 5262 5261 5261 5262 5261 5262 5262 5262 5262 5262 5262 5263 5263 5264 5266 5267 5268 5269 5270 5271 5272 5272 5273 5274 5275 5275 5276
5346 5343 5340 5338 5336 5333 5331 5329 5326 5323 5320 5317 5314 5312 5309 5307 5305 5302 5300 5297 5295 5293 5291 5289 5287 5284 5282 5279 5277 5274 5273 5270 5269 5268 5266 5265 5264 5263 5263 5262 5263 5262 5262 5261 5261 5261 5262 5262 5262 5262 5262 5262 5263 5263 5264 5265 5266 5268 5268 5269 5271 5272 5272 5273 5274 5275 5276 5276 5277
5343 5340 5337 5335 5333 5331 5328 5325 5322 5319 5316 5314 5311 5309 5306 5304 5301 5299 5296 5293 5291 5289 5287 5286 5284 5281 5278 5276 5274 5272 5270 5268 5267 5265 5264 5263 5262 5261 5261 5261 5262 5262 5262 5262 5262 5262 5262 5262 5263 5263 5262 5263 5263 5264 5264 5265 5266 5268 5269 5270 5272 5272 5273 5274 5275 5276 5277 5278 5278
5339 5337 5334 5332 5329 5326 5324 5321 5318 5315 5312 5310 5308 5305 5303 5300 5298 5295 5292 5290 5287 5285 5283 5282 5280 5278 5276 5273 5271 5270 5269 5267 5265 5264 5263 5261 5260 5259 5259 5259 5260 5261 5262 5262 5262 5263 5262 5263 5263 5263 5263 5263 5264 5264 5264 5266 5267 5268 5269 5271 5272 5273 5274 5275 5275 5277 5278 5279 5279
5336 5333 5331 5328 5325 5323 5320 5317 5315 5312 5309 5306 5304 5302 5299 5297 5294 5291 5288 5286 5283 5281 5280 5278 5277 5275 5273 5270 5269 5268 5267 5266 5264 5262 5260 5260 5258 5258 5258 5258 5259 5261 5263 5263 5263 5264 5264 5264 5265 5264 5264 5264 5264 5264 5264 5265 5266 5267 5269 5270 5271 5273 5274 5276 5276 5276 5277 5278 5278
5332 5330 5327 5324 5322 5319 5317 5313 5311 5308 5306 5303 5300 5298 5295 5293 5290 5288 5286 5283 5280 5278 5276 5274 5273 5272 5270 5268 5267 5266 5266 5265 5263 5261 5259 5257 5257 5257 5257 5258 5259 5261 5262 5264 5264 5264 5265 5265 5266 5265 5265 5264 5264 5264 5264 5265 5266 5267 5269 5270 5271 5273 5273 5275 5276 5276 5276 5277 5277